Location: Allie Creek
(37.5926°N, 89.8526°W)
Time: 15:05:55
(UTC+00:00)

ARIANE 5 R/B - Pass Details

Date: 26 September 2023
Orbit: 748 x 793 km, 98.8° (Epoch: 07 December)

Event Time Altitude Azimuth Distance (km) Brightness Sun altitude
Rises 11:06:42 0° 6° (N) 3,234 5.9 -9.5°
Reaches altitude 10° 11:09:06 10° 0° (N) 2,297 5.1 -9.0°
Maximum altitude 11:13:53 45° 289° (WNW) 1,023 2.8 -8.1°
Drops below altitude 10° 11:18:36 10° 217° (SW) 2,264 4.6 -7.1°
Sets 11:20:57 0° 211° (SSW) 3,181 5.4 -6.7°
